Location: Beadle
(51.4667°N, 109.0000°W)
Time: 10:33:03
(UTC+00:00)

DIWATA 2B (PO-101) - Pass Details

Date: 05 July 2022
Orbit: 583 x 599 km, 98.0° (Epoch: 14 August)

Event Time Altitude Azimuth Distance (km) Brightness Sun altitude
Exits shadow 08:39:38 11° 151° (SSE) 1,888 ? -13.8°
Maximum altitude 08:43:39 61° 72° (ENE) 685 ? -13.6°
Drops below altitude 10° 08:47:50 10° 352° (N) 1,952 ? -13.3°
Sets 08:50:02 0° 349° (N) 2,858 ? -13.2°
